Flag for Portugal Weather past 2 weeks in Lisbon, Portugal

Now
61 °F

Clear.


Feels Like: 61 °F
Forecast: 62 / 76 °F
Wind: 18 mph from Northwest

Location: Lisbon Portela Airport

Current Time: Sep 4, 2015 at 10:30:14 PM

Latest Report: Sep 4, 2015 at 10:00 PM


Visibility: N/A

Pressure: 30.04 "Hg

Humidity: 77%

Dew point: 54 °F

Location of LisbonLocation

Historic Weather in Lisbon — Graph

°F

Lisbon temperature yesterday

Maximum temperature yesterday: 72 °F (at 12:30 PM)
Minimum temperature yesterday: 63 °F (at 12:00 AM)
Average temperature yesterday: 65 °F

Past Weeks' High & Low Weather Summary

 TemperatureHumidityPressure
High91 °F (Aug 29, 3:00 PM)100% (Aug 23, 9:00 PM)30.12 "Hg (Aug 23, 9:00 PM)
Low59 °F (Aug 25, 5:00 AM)22% (Aug 29, 2:00 PM)29.89 "Hg (Aug 29, 4:30 PM)
Average70 °F71%30.02 "Hg
* Reported Aug 20 9:00 PM — Sep 4 9:00 PM, Lisbon, Weather by CustomWeather, © 2015

Note: Actual official high and low records may vary slightly from our data, if they occured in-between our weather recording intervals... More about our weather records

Advertising

Lisbon weather history for previous 24 hours

 ConditionsComfort  
Time TempWeatherWind HumidityBarometerVisibility
9:00 PM
Fri, Sep 4
63 °FPassing clouds.16 mph73%30.04 "HgN/A
8:30 PM63 °FPassing clouds.15 mph73%30.04 "HgN/A
8:00 PM63 °FPassing clouds.14 mph73%30.01 "HgN/A
7:30 PM64 °FPassing clouds.18 mph68%30.01 "HgN/A
7:00 PM64 °FPassing clouds.15 mph68%30.01 "HgN/A
6:30 PM66 °FPassing clouds.14 mph64%30.01 "HgN/A
6:00 PM66 °FPassing clouds.15 mph64%30.01 "HgN/A
5:30 PM66 °FPassing clouds.17 mph64%30.01 "HgN/A
5:00 PM68 °FPassing clouds.17 mph60%30.01 "HgN/A
4:30 PM70 °FMild.15 mph57%30.01 "HgN/A
4:00 PM70 °FPassing clouds.16 mph57%30.01 "HgN/A
3:30 PM70 °FPassing clouds.17 mph53%30.01 "HgN/A
3:00 PM70 °FPassing clouds.14 mph53%30.01 "HgN/A
2:30 PM70 °FPassing clouds.16 mph53%30.04 "HgN/A
2:00 PM68 °FPassing clouds.15 mph56%30.01 "HgN/A
1:30 PM70 °FPassing clouds.15 mph53%30.04 "HgN/A
1:00 PM68 °FPassing clouds.14 mph56%30.04 "HgN/A
12:30 PM68 °FPassing clouds.14 mph56%30.04 "HgN/A
12:00 PM68 °FPassing clouds.14 mph56%30.04 "HgN/A
11:30 AM66 °FPassing clouds.18 mph60%30.04 "HgN/A
11:00 AM66 °FPassing clouds.15 mph60%30.04 "HgN/A
10:30 AM66 °FPassing clouds.15 mph60%30.04 "HgN/A
10:00 AM64 °FPassing clouds.17 mph64%30.04 "HgN/A
9:30 AM64 °FScattered clouds.13 mph64%30.04 "HgN/A
9:00 AM63 °FScattered clouds.13 mph73%30.04 "HgN/A
8:30 AM61 °FPassing clouds.12 mph77%30.01 "HgN/A
8:00 AM61 °FPassing clouds.8 mph77%30.01 "HgN/A
7:30 AM61 °FPassing clouds.10 mph77%30.01 "HgN/A
7:00 AM61 °FPassing clouds.14 mph83%30.01 "HgN/A
6:30 AM61 °FPassing clouds.13 mph83%30.01 "HgN/A
6:00 AM61 °FPassing clouds.13 mph83%30.01 "HgN/A
5:30 AM61 °FPassing clouds.6 mph83%29.98 "HgN/A
5:00 AM61 °FPassing clouds.7 mph83%30.01 "HgN/A
4:30 AM61 °FPassing clouds.6 mph83%30.01 "HgN/A
4:00 AM61 °FPassing clouds.6 mph83%30.01 "HgN/A
3:30 AM61 °FPassing clouds.9 mph83%30.01 "HgN/A
3:00 AM61 °FPassing clouds.8 mph88%30.01 "HgN/A
2:30 AM61 °FPassing clouds.9 mph83%30.01 "HgN/A
2:00 AM61 °FPassing clouds.10 mph83%30.01 "HgN/A
1:30 AM63 °FPassing clouds.9 mph77%30.04 "HgN/A
1:00 AM63 °FPassing clouds.9 mph77%30.04 "HgN/A
12:30 AM63 °FPassing clouds.10 mph77%30.04 "HgN/A
12:00 AM63 °FPassing clouds.12 mph77%30.01 "HgN/A
11:30 PM
Thu, Sep 3
63 °FPassing clouds.15 mph83%30.01 "HgN/A
10:30 PM63 °FPassing clouds.16 mph77%30.01 "HgN/A
10:00 PM63 °FPassing clouds.15 mph77%30.01 "HgN/A
Weather by CustomWeather, © 2015

See weather overviewHow to use our weather pages